TimePDT,TemperatureF,Dew PointF,Humidity,Sea Level PressureIn,VisibilityMPH,Wind Direction,Wind SpeedMPH,Gust SpeedMPH,PrecipitationIn,Events,Conditions,WindDirDegrees,DateUTC
12:53 AM,48.9,48.0,97,29.88,10.0,Calm,Calm,-,N/A,,Scattered Clouds,0,2013-09-25 07:53:00
1:02 AM,48.2,46.4,93,29.86,8.0,Calm,Calm,-,N/A,,Mostly Cloudy,0,2013-09-25 08:02:00
1:08 AM,48.2,48.2,100,29.87,1.8,Calm,Calm,-,N/A,,Mostly Cloudy,0,2013-09-25 08:08:00
1:13 AM,48.2,48.2,100,29.87,0.8,Calm,Calm,-,N/A,,Mist,0,2013-09-25 08:13:00
1:43 AM,48.2,46.4,93,29.86,2.0,Calm,Calm,-,N/A,,Overcast,0,2013-09-25 08:43:00
1:53 AM,46.9,46.9,100,29.88,2.5,Calm,Calm,-,N/A,,Overcast,0,2013-09-25 08:53:00
2:00 AM,46.4,46.4,100,29.87,3.0,Calm,Calm,-,N/A,,Overcast,0,2013-09-25 09:00:00
2:05 AM,46.4,46.4,100,29.87,2.5,ENE,3.5,-,N/A,,Overcast,70,2013-09-25 09:05:00
2:11 AM,46.4,46.4,100,29.87,5.0,Calm,Calm,-,N/A,,Overcast,0,2013-09-25 09:11:00
2:28 AM,46.4,46.4,100,29.87,9.0,Calm,Calm,-,N/A,,Mostly Cloudy,0,2013-09-25 09:28:00
2:53 AM,46.9,46.0,97,29.89,10.0,Calm,Calm,-,N/A,,Clear,0,2013-09-25 09:53:00
3:33 AM,44.6,44.6,100,29.87,3.0,Calm,Calm,-,N/A,,Scattered Clouds,0,2013-09-25 10:33:00
3:35 AM,44.6,44.6,100,29.87,1.8,Calm,Calm,-,N/A,,Scattered Clouds,0,2013-09-25 10:35:00
3:38 AM,44.6,44.6,100,29.87,0.8,East,3.5,-,N/A,,Mist,80,2013-09-25 10:38:00
3:48 AM,44.6,44.6,100,29.87,1.2,Calm,Calm,-,N/A,,Scattered Clouds,0,2013-09-25 10:48:00
3:51 AM,44.6,44.6,100,29.87,3.0,Calm,Calm,-,N/A,,Scattered Clouds,0,2013-09-25 10:51:00
3:53 AM,45.0,44.1,97,29.88,5.0,Calm,Calm,-,N/A,,Scattered Clouds,0,2013-09-25 10:53:00
4:17 AM,44.6,44.6,100,29.88,2.5,Calm,Calm,-,N/A,,Mostly Cloudy,0,2013-09-25 11:17:00
4:22 AM,44.6,44.6,100,29.88,4.0,NNE,3.5,-,N/A,,Scattered Clouds,20,2013-09-25 11:22:00
4:39 AM,44.6,44.6,100,29.88,1.5,NE,3.5,-,N/A,,Mostly Cloudy,40,2013-09-25 11:39:00
4:44 AM,44.6,44.6,100,29.88,0.2,NE,3.5,-,N/A,Fog,Fog,50,2013-09-25 11:44:00
4:53 AM,44.1,43.0,96,29.89,0.5,Calm,Calm,-,N/A,Fog,Fog,0,2013-09-25 11:53:00
5:04 AM,44.6,42.8,93,29.88,3.0,Calm,Calm,-,N/A,,Scattered Clouds,0,2013-09-25 12:04:00
5:53 AM,44.1,43.0,96,29.91,10.0,ENE,3.5,-,N/A,,Mostly Cloudy,60,2013-09-25 12:53:00
6:53 AM,43.0,42.1,97,29.92,10.0,ENE,4.6,-,N/A,,Clear,60,2013-09-25 13:53:00
7:23 AM,42.8,42.8,100,29.92,2.5,ENE,3.5,-,N/A,,Clear,60,2013-09-25 14:23:00
7:31 AM,42.8,42.8,100,29.92,5.0,ENE,3.5,-,N/A,,Clear,70,2013-09-25 14:31:00
7:53 AM,44.1,44.1,100,29.93,4.0,NE,3.5,-,N/A,,Clear,50,2013-09-25 14:53:00
8:53 AM,46.9,46.0,97,29.95,4.0,ENE,3.5,-,N/A,,Clear,70,2013-09-25 15:53:00
9:53 AM,50.0,48.0,93,29.97,8.0,ESE,3.5,-,N/A,,Partly Cloudy,120,2013-09-25 16:53:00
10:53 AM,53.1,48.0,83,29.97,10.0,Calm,Calm,-,N/A,,Clear,0,2013-09-25 17:53:00
11:53 AM,57.0,48.9,74,29.98,10.0,East,6.9,-,N/A,,Clear,90,2013-09-25 18:53:00
12:53 PM,57.9,48.9,72,29.99,10.0,South,3.5,-,N/A,,Partly Cloudy,180,2013-09-25 19:53:00
1:53 PM,57.9,48.0,70,29.99,10.0,SSW,5.8,-,N/A,,Mostly Cloudy,210,2013-09-25 20:53:00
2:53 PM,59.0,46.0,62,30.00,10.0,WSW,6.9,-,N/A,,Clear,240,2013-09-25 21:53:00
3:53 PM,60.1,46.9,62,30.00,10.0,SW,8.1,-,N/A,,Clear,230,2013-09-25 22:53:00
4:53 PM,60.1,48.0,64,30.01,10.0,WSW,9.2,-,N/A,,Clear,250,2013-09-25 23:53:00
5:53 PM,59.0,48.9,69,30.02,10.0,West,8.1,-,N/A,,Clear,280,2013-09-26 00:53:00
6:53 PM,57.9,46.9,67,30.03,10.0,WNW,5.8,-,N/A,,Clear,300,2013-09-26 01:53:00
7:53 PM,55.0,46.9,74,30.04,10.0,Calm,Calm,-,N/A,,Scattered Clouds,0,2013-09-26 02:53:00
8:53 PM,54.0,46.9,77,30.04,10.0,Calm,Calm,-,N/A,,Clear,0,2013-09-26 03:53:00
9:53 PM,52.0,46.9,83,30.05,10.0,Calm,Calm,-,N/A,,Clear,0,2013-09-26 04:53:00
10:53 PM,53.1,48.9,86,30.04,10.0,West,3.5,-,N/A,,Clear,270,2013-09-26 05:53:00
11:53 PM,52.0,48.9,89,30.05,10.0,WSW,4.6,-,N/A,,Clear,240,2013-09-26 06:53:00